#timestamp,LO_Frequency,Hit 
1501491615.9,286047001.1,P
1501491635.7,286046998.9,P
1501491655.5,286046997.0,P
1501491675.4,286046997.2,N
1501491695.2,286046995.1,N
1501491715.0,286046996.4,N
1501491715.9,286046996.4,N
1501491735.8,286046993.5,P
1501491755.6,286046995.7,N
1501491775.5,286046995.2,N
1501491795.3,286046995.7,N
1501491815.1,286046993.4,P
1501491835.9,286046998.6,N
1501491855.7,286046998.4,N
1501491875.6,286046999.1,N
1501491895.4,286046999.2,N
1501491915.2,286046996.6,N
1501491935.1,286046996.5,N
1501491936.0,286046996.5,N
1501491955.8,286046998.9,N
1501491975.7,286046999.6,N
1501491995.5,286046997.4,N
1501492015.3,286046996.7,N
1501492035.2,286046997.3,N
1501492055.0,286046998.2,N
1501492055.9,286046998.2,N
1501492075.7,286046999.9,N
1501492095.6,286047000.3,N
1501492115.4,286047000.0,N
1501492135.3,286047000.4,N
1501492155.1,286046999.8,N
1501492156.0,286046999.8,N
1501492175.8,286047000.2,N
1501492195.7,286047002.2,N
1501492215.5,286046999.9,N
1501492235.3,286046999.8,N
1501492255.2,286046998.2,N
1501492275.0,286046998.2,N
1501492275.9,286046998.2,N
1501492295.8,286046998.8,N
1501492315.6,286046998.9,N
1501492335.4,286046999.3,N
1501492355.3,286047000.6,N
1501492375.1,286047000.2,N
1501492395.9,286047002.8,N
1501492415.7,286047001.8,N
1501492435.5,286047002.0,N
1501492455.4,286047001.8,N
1501492475.2,286047001.4,N
1501492495.0,286047001.5,N
1501492495.9,286047001.5,N
1501492515.8,286047002.1,N
1501492535.6,286047002.0,N
1501492555.5,286047000.4,N
1501492575.3,286047002.2,N
1501492595.1,286047002.5,N
1501492615.9,286047002.6,N
1501492635.7,286047000.2,N
1501492655.5,286047002.7,N
1501492675.4,286047001.5,N
1501492695.2,286047002.3,N
1501492715.1,286047000.8,N
1501492716.0,286047000.8,N
1501492735.8,286046998.8,N
1501492755.6,286046998.1,N
1501492775.5,286047000.8,N
1501492795.3,286047002.6,N
1501492815.2,286047000.3,N
1501492835.9,286047000.0,N
1501492855.7,286047001.2,N
1501492875.6,286046998.2,N
1501492895.4,286047000.8,N
1501492915.2,286046999.2,N
1501492935.1,286046999.0,N
1501492936.0,286046999.0,N
1501492955.8,286046999.4,N
1501492975.7,286046996.9,N
1501492995.5,286046999.5,N
1501493015.3,286047001.1,N
1501493035.2,286047001.8,N
1501493055.0,286047002.1,N
1501493055.9,286047002.1,N
1501493075.7,286047002.5,N
1501493095.6,286047002.1,N
1501493115.4,286047002.4,N
1501493135.3,286046999.9,N
1501493155.1,286047000.5,N
1501493175.8,286046999.8,N
1501493195.7,286046998.1,N
1501493215.5,286047000.1,N
1501493235.4,286047002.4,N
1501493255.2,286047000.9,N
1501493275.0,286047000.5,N
1501493275.9,286047000.5,N
1501493295.8,286046999.8,N
1501493315.6,286047000.9,N
1501493335.4,286046998.4,N
1501493355.3,286046999.0,N
1501493375.1,286046999.3,N
1501493395.9,286046998.7,N
1501493415.7,286046998.7,N
1501493435.5,286047000.8,N
1501493455.4,286046998.6,N
1501493475.2,286047000.8,N
1501493495.0,286046998.5,N
1501493495.9,286046998.5,N
1501493515.8,286047000.9,N
1501493535.6,286046998.4,N
1501493555.5,286046999.4,N
1501493575.3,286046999.5,N
1501493595.1,286046997.5,N
1501493615.9,286046997.7,N
1501493635.7,286046995.0,P
1501493655.6,286046995.0,N
1501493675.4,286046996.3,N
1501493695.2,286046994.1,N
1501493715.1,286046993.5,P
1501493716.0,286046993.5,P
1501493735.8,286046996.6,N
1501493755.7,286046999.1,N
1501493775.5,286046999.4,N
1501493795.3,286046998.3,N
1501493815.2,286046996.5,N
1501493835.0,286047001.2,N
1501493835.9,286047001.2,N
1501493855.7,286047000.4,N
1501493875.6,286046998.4,N
1501493895.4,286046999.0,N
1501493915.3,286046998.6,N
1501493935.1,286047001.2,N
1501493936.0,286047001.2,N
1501493955.8,286047000.4,N
1501493975.7,286046999.9,N
1501493995.5,286047002.6,N
1501494015.3,286047004.0,N
1501494035.2,286047003.6,N
1501494055.0,286047003.1,N
1501494055.9,286047003.1,N
1501494075.8,286047004.0,N
1501494095.6,286047002.5,N
1501494115.4,286047001.7,N
1501494135.3,286047003.2,N
1501494155.1,286047005.9,N
1501494175.9,286047001.3,N
1501494195.7,286047001.3,N
1501494215.5,286047002.0,N
1501494235.4,286047002.5,N
1501494255.2,286047003.7,N
1501494275.0,286047001.8,N
1501494275.9,286047001.8,N
1501494295.8,28601501494375.5,286046999.3,P
1501494395.4,286046998.7,P
1501494415.2,286046996.9,P
1501494435.0,286046997.5,N
1501494435.9,286046997.5,N
1501494455.8,286046997.9,N
1501494475.6,286046997.5,N
1501494495.5,286046996.7,P
1501494515.3,286046998.9,N
1501494535.1,286046998.7,N
1501494555.9,286046999.1,N
1501494575.7,286046999.0,N
1501494595.6,286046999.3,N
1501494615.4,286046999.6,N
1501494635.2,286046998.3,N
1501494655.1,286046998.9,N
1501494656.0,286046998.9,N
1501494675.8,286046998.9,N
1501494695.6,286046996.9,P
1501494715.5,286046998.5,N
1501494735.3,286047001.2,N
1501494755.2,286046998.6,N
1501494775.9,286046998.7,N
1501494795.7,286046999.0,N
1501494815.6,286046998.4,N
1501494835.4,286046999.1,N
1501494855.3,286046997.8,N
1501494875.1,286046997.0,N
1501494876.0,286046997.0,N
1501494895.8,286046999.2,N
1501494915.7,286046997.1,N
1501494935.5,286046997.6,N
1501494955.3,286046999.2,N
1501494975.2,286046997.4,N
1501494995.0,286046997.8,N
1501494995.9,286046997.8,N
1501495015.8,286046995.6,P
1501495035.6,286046996.6,N
1501495055.4,286046997.2,N
1501495075.3,286046995.4,P
1501495095.1,286046996.9,P
1501495115.9,286046996.6,P
1501495135.7,286046999.3,N
1501495155.5,286046998.5,N
1501495175.4,286046999.5,N
1501495195.2,286046999.3,N
